| time (UTC) | temp F | wind direction | speed MPH | gust MPH | rain 1hr in | rain 24hr in | rain mn in | humidity % | barometer mb |
| 20260831223041 | 84 | 252 | 8.0 | 0.0 | 0.00 | 0.00 | 0.00 | 16 | 999.8 |
| 20260831221536 | 85 | 250 | 5.0 | 0.0 | 0.00 | 0.00 | 0.00 | 15 | 1000.0 |
| 20260831220033 | 85 | 270 | 6.0 | 0.0 | 0.00 | 0.00 | 0.00 | 15 | 1000.1 |
| 20260831214533 | 84 | 189 | 9.0 | 0.0 | 0.00 | 0.00 | 0.00 | 15 | 1000.2 |
| 20260831213032 | 84 | 173 | 7.0 | 0.0 | 0.00 | 0.00 | 0.00 | 15 | 1000.4 |
| 20260831211533 | 85 | 134 | 7.0 | 0.0 | 0.00 | 0.00 | 0.00 | 15 | 1000.4 |
| 20260831210035 | 84 | 175 | 5.0 | 0.0 | 0.00 | 0.00 | 0.00 | 15 | 1000.5 |
| 20260831204526 | 83 | 108 | 5.0 | 0.0 | 0.00 | 0.00 | 0.00 | 15 | 1000.6 |
| 20260831203023 | 83 | 192 | 6.0 | 0.0 | 0.00 | 0.00 | 0.00 | 16 | 1000.7 |
| 20260831201522 | 83 | 226 | 6.0 | 0.0 | 0.00 | 0.00 | 0.00 | 15 | 1001.0 |
| 20260831200017 | 83 | 126 | 6.0 | 0.0 | 0.00 | 0.00 | 0.00 | 14 | 1001.4 |
| 20260831194513 | 82 | 68 | 4.0 | 0.0 | 0.00 | 0.00 | 0.00 | 17 | 1001.4 |
| 20260831193024 | 81 | 94 | 3.0 | 0.0 | 0.00 | 0.00 | 0.00 | 18 | 1001.8 |
| 20260831191505 | 79 | 68 | 3.0 | 0.0 | 0.00 | 0.00 | 0.00 | 21 | 1002.1 |
| 20260831190002 | 78 | 34 | 4.0 | 0.0 | 0.00 | 0.00 | 0.00 | 23 | 1002.4 |
| 20260831184559 | 77 | 65 | 3.0 | 0.0 | 0.00 | 0.00 | 0.00 | 24 | 1002.6 |
| 20260831183102 | 76 | 24 | 4.0 | 0.0 | 0.00 | 0.00 | 0.00 | 24 | 1002.7 |
| 20260831181608 | 75 | 37 | 3.0 | 0.0 | 0.00 | 0.00 | 0.00 | 27 | 1002.9 |
| 20260831180049 | 74 | 38 | 3.0 | 0.0 | 0.00 | 0.00 | 0.00 | 26 | 1003.1 |
| 20260831174547 | 74 | 48 | 3.0 | 0.0 | 0.00 | 0.00 | 0.00 | 28 | 1003.2 |
| 20260831173045 | 72 | 24 | 2.0 | 0.0 | 0.00 | 0.00 | 0.00 | 31 | 1003.3 |
| 20260831171539 | 71 | 46 | 2.0 | 0.0 | 0.00 | 0.00 | 0.00 | 32 | 1003.1 |
| 20260831170037 | 70 | 45 | 2.0 | 0.0 | 0.00 | 0.00 | 0.00 | 33 | 1003.2 |
| 20260831164542 | 69 | 24 | 1.0 | 0.0 | 0.00 | 0.00 | 0.00 | 35 | 1003.2 |
| 20260831163030 | 68 | 32 | 2.0 | 0.0 | 0.00 | 0.00 | 0.00 | 36 | 1003.3 |
| 20260831161547 | 67 | 86 | 2.0 | 0.0 | 0.00 | 0.00 | 0.00 | 37 | 1003.4 |
| 20260831160030 | 67 | 88 | 2.0 | 0.0 | 0.00 | 0.00 | 0.00 | 36 | 1003.4 |
| 20260831154524 | 66 | 88 | 2.0 | 0.0 | 0.00 | 0.00 | 0.00 | 37 | 1003.7 |
| 20260831153023 | 66 | 88 | 1.0 | 0.0 | 0.00 | 0.00 | 0.00 | 36 | 1003.7 |
| 20260831151519 | 65 | 259 | 0.0 | 0.0 | 0.00 | 0.00 | 0.00 | 35 | 1003.8 |
| 20260831150015 | 63 | 259 | 1.0 | 0.0 | 0.00 | 0.00 | 0.00 | 37 | 1003.9 |
| 20260831144514 | 62 | 259 | 1.0 | 0.0 | 0.00 | 0.00 | 0.00 | 36 | 1004.0 |
| 20260831143015 | 60 | 259 | 0.0 | 0.0 | 0.00 | 0.00 | 0.00 | 39 | 1003.9 |
| 20260831141512 | 57 | 259 | 1.0 | 0.0 | 0.00 | 0.00 | 0.00 | 40 | 1003.8 |
| 20260831140012 | 55 | 259 | 3.0 | 0.0 | 0.00 | 0.00 | 0.00 | 41 | 1003.7 |
| 20260831134514 | 53 | 263 | 3.0 | 0.0 | 0.00 | 0.00 | 0.00 | 43 | 1003.7 |
| 20260831133010 | 53 | 263 | 4.0 | 0.0 | 0.00 | 0.00 | 0.00 | 43 | 1003.7 |
| 20260831131509 | 53 | 265 | 3.0 | 0.0 | 0.00 | 0.00 | 0.00 | 43 | 1003.7 |
| 20260831130005 | 55 | 265 | 3.0 | 0.0 | 0.00 | 0.00 | 0.00 | 42 | 1003.7 |
| 20260831124503 | 56 | 265 | 1.0 | 0.0 | 0.00 | 0.00 | 0.00 | 39 | 1003.8 |
| 20260831123002 | 56 | 265 | 1.0 | 0.0 | 0.00 | 0.00 | 0.00 | 40 | 1003.6 |
| 20260831121502 | 57 | 265 | 3.0 | 0.0 | 0.00 | 0.00 | 0.00 | 41 | 1003.6 |
| 20260831120005 | 56 | 264 | 4.0 | 0.0 | 0.00 | 0.00 | 0.00 | 43 | 1003.6 |
| 20260831114600 | 56 | 267 | 3.0 | 0.0 | 0.00 | 0.00 | 0.00 | 44 | 1003.6 |
| 20260831113058 | 56 | 267 | 3.0 | 0.0 | 0.00 | 0.00 | 0.00 | 43 | 1003.7 |
| 20260831111556 | 56 | 267 | 3.0 | 0.0 | 0.00 | 0.00 | 0.00 | 43 | 1003.8 |
| 20260831110054 | 57 | 267 | 3.0 | 0.0 | 0.00 | 0.00 | 0.00 | 43 | 1003.8 |
| 20260831104552 | 57 | 267 | 0.0 | 0.0 | 0.00 | 0.00 | 0.00 | 43 | 1003.8 |
| 20260831103051 | 58 | 267 | 3.0 | 0.0 | 0.00 | 0.00 | 0.00 | 43 | 1003.9 |
| 20260831101548 | 58 | 251 | 3.0 | 0.0 | 0.00 | 0.00 | 0.00 | 42 | 1004.0 |
| 20260831100100 | 60 | 246 | 2.0 | 0.0 | 0.00 | 0.00 | 0.00 | 40 | 1004.1 |
| 20260831094547 | 60 | 246 | 2.0 | 0.0 | 0.00 | 0.00 | 0.00 | 40 | 1004.1 |
| 20260831093052 | 60 | 246 | 3.0 | 0.0 | 0.00 | 0.00 | 0.00 | 39 | 1004.1 |
| 20260831091540 | 61 | 251 | 4.0 | 0.0 | 0.00 | 0.00 | 0.00 | 38 | 1004.2 |
| 20260831090038 | 61 | 257 | 5.0 | 0.0 | 0.00 | 0.00 | 0.00 | 39 | 1004.2 |
| 20260831084538 | 62 | 273 | 5.0 | 0.0 | 0.00 | 0.00 | 0.00 | 38 | 1004.3 |
| 20260831083050 | 61 | 258 | 5.0 | 0.0 | 0.00 | 0.00 | 0.00 | 39 | 1004.3 |
| 20260831081535 | 61 | 251 | 4.0 | 0.0 | 0.00 | 0.00 | 0.00 | 39 | 1004.4 |
| 20260831080052 | 61 | 249 | 4.0 | 0.0 | 0.00 | 0.00 | 0.00 | 38 | 1004.6 |
| 20260831074530 | 62 | 250 | 4.0 | 0.0 | 0.00 | 0.00 | 0.00 | 37 | 1004.6 |
| 20260831073028 | 62 | 254 | 5.0 | 0.0 | 0.00 | 0.00 | 0.00 | 37 | 1004.6 |
| 20260831071541 | 62 | 256 | 5.0 | 0.0 | 0.00 | 0.00 | 0.00 | 38 | 1004.5 |
| 20260831070025 | 62 | 257 | 4.0 | 0.0 | 0.00 | 0.00 | 0.00 | 38 | 1004.6 |
| 20260831064525 | 62 | 247 | 3.0 | 0.0 | 0.00 | 0.00 | 0.00 | 38 | 1004.7 |
| 20260831063025 | 62 | 246 | 4.0 | 0.0 | 0.00 | 0.00 | 0.00 | 39 | 1004.6 |
| 20260831061524 | 62 | 219 | 4.0 | 0.0 | 0.00 | 0.00 | 0.00 | 40 | 1004.7 |
| 20260831060024 | 63 | 205 | 2.0 | 0.0 | 0.00 | 0.00 | 0.00 | 38 | 1004.7 |
| 20260831054523 | 64 | 205 | 3.0 | 0.0 | 0.00 | 0.00 | 0.00 | 37 | 1004.7 |
| 20260831053025 | 65 | 205 | 2.0 | 0.0 | 0.00 | 0.00 | 0.00 | 35 | 1004.6 |
| 20260831051529 | 63 | 206 | 2.0 | 0.0 | 0.00 | 0.00 | 0.00 | 38 | 1004.7 |
| 20260831050024 | 64 | 206 | 3.0 | 0.0 | 0.00 | 0.00 | 0.00 | 38 | 1004.6 |
| 20260831044535 | 65 | 205 | 2.0 | 0.0 | 0.00 | 0.00 | 0.00 | 36 | 1004.6 |
| 20260831043022 | 66 | 204 | 2.0 | 0.0 | 0.00 | 0.00 | 0.00 | 33 | 1004.5 |
| 20260831041531 | 67 | 211 | 3.0 | 0.0 | 0.00 | 0.00 | 0.00 | 33 | 1004.3 |
| 20260831040023 | 67 | 213 | 2.0 | 0.0 | 0.00 | 0.00 | 0.00 | 34 | 1004.0 |
| 20260831034519 | 67 | 213 | 2.0 | 0.0 | 0.00 | 0.00 | 0.00 | 32 | 1003.7 |
| 20260831033023 | 70 | 213 | 1.0 | 0.0 | 0.00 | 0.00 | 0.00 | 30 | 1003.6 |
| 20260831031531 | 71 | 214 | 2.0 | 0.0 | 0.00 | 0.00 | 0.00 | 29 | 1003.4 |
| 20260831030019 | 72 | 188 | 1.0 | 0.0 | 0.00 | 0.00 | 0.00 | 28 | 1003.2 |
| 20260831024518 | 74 | 188 | 4.0 | 0.0 | 0.00 | 0.00 | 0.00 | 25 | 1002.9 |
| 20260831023018 | 76 | 331 | 1.0 | 0.0 | 0.00 | 0.00 | 0.00 | 24 | 1002.9 |
| 20260831021519 | 77 | 330 | 2.0 | 0.0 | 0.00 | 0.00 | 0.00 | 22 | 1002.8 |
| 20260831020018 | 80 | 355 | 3.0 | 0.0 | 0.00 | 0.00 | 0.00 | 20 | 1002.8 |
| 20260831014518 | 82 | 22 | 1.0 | 0.0 | 0.00 | 0.00 | 0.00 | 19 | 1002.8 |
| 20260831013016 | 82 | 24 | 1.0 | 0.0 | 0.00 | 0.00 | 0.00 | 18 | 1002.8 |
| 20260831011516 | 82 | 23 | 3.0 | 0.0 | 0.00 | 0.00 | 0.00 | 16 | 1002.8 |
| 20260831010015 | 83 | 37 | 3.0 | 0.0 | 0.00 | 0.00 | 0.00 | 16 | 1002.8 |
| 20260831004515 | 83 | 350 | 4.0 | 0.0 | 0.00 | 0.00 | 0.00 | 16 | 1002.8 |
| 20260831003019 | 83 | 11 | 4.0 | 0.0 | 0.00 | 0.00 | 0.00 | 15 | 1002.9 |
| 20260831001514 | 84 | 340 | 3.0 | 0.0 | 0.00 | 0.00 | 0.00 | 15 | 1002.9 |
| 20260831000020 | 84 | 178 | 7.0 | 0.0 | 0.00 | 0.00 | 0.00 | 14 | 1002.8 |
| 20260830234513 | 84 | 149 | 7.0 | 0.0 | 0.00 | 0.00 | 0.00 | 13 | 1002.8 |
| 20260830233012 | 84 | 246 | 6.0 | 0.0 | 0.00 | 0.00 | 0.00 | 14 | 1003.0 |
| 20260830231515 | 84 | 144 | 7.0 | 0.0 | 0.00 | 0.00 | 0.00 | 14 | 1003.1 |
| 20260830230008 | 84 | 118 | 8.0 | 0.0 | 0.00 | 0.00 | 0.00 | 12 | 1003.4 |
| 20260830224506 | 83 | 219 | 8.0 | 0.0 | 0.00 | 0.00 | 0.00 | 14 | 1003.7 |